RH
10 13 15 15 15 13 11 10 10 10 10 11 10 11 11 11 11 9 10 11 10 14 17 17 18 20 22 21 21 20 19 19 20 23 24 26 31 34 38 42 42 42 41 39 39 40 42 43 42 44 48 49 52 54 55 56 54 55 56 53 56 60 62 65 66 65 66 68 68 67 66 64 63 62 61 63 64 66 67 66 66 67 70 72 72 72
11 14 13 11 11 11 10 10 9 9 10 10 11 12 11 11 11 9 10 11 11 14 18 18 18 21 21 21 22 21 21 20 20 21 21 24 30 34 37 41 42 41 39 39 40 41 41 42 42 43 48 50 51 54 56 58 56 56 58 56 56 60 62 65 68 69 69 69 69 68 67 66 65 64 63 63 64 66 66 66 66 67 68 70 72 74
13 13 11 9 9 9 8 9 9 10 10 10 11 12 13 12 10 10 10 11 12 14 18 18 18 22 22 21 22 21 21 21 19 21 20 22 27 32 36 39 41 41 41 41 41 42 42 42 42 43 48 50 51 53 55 59 58 57 60 61 59 61 64 66 68 70 71 71 70 69 68 67 66 66 65 64 66 68 68 65 64 64 66 69 72 74
15 12 9 8 8 8 8 8 9 10 10 11 12 13 13 11 11 12 10 10 12 12 17 18 19 25 23 22 24 21 21 21 20 20 20 20 24 29 31 34 39 42 42 42 41 41 42 42 43 45 48 50 51 52 54 59 61 59 61 63 63 62 65 69 69 69 70 72 72 71 69 67 66 65 64 65 67 70 69 65 63 62 62 66 69 73
13 10 8 8 8 8 8 7 8 10 12 12 11 12 12 11 11 12 10 10 11 11 13 16 22 29 28 26 26 23 21 21 20 21 21 21 22 25 27 29 35 40 41 42 42 41 42 43 43 45 47 49 51 52 54 57 61 62 62 63 65 64 64 69 71 69 69 73 74 72 69 67 66 66 66 68 71 71 68 65 63 61 61 65 69 73
11 8 7 8 8 7 7 7 8 10 12 13 12 11 11 10 10 10 9 10 15 17 13 14 25 34 31 28 28 25 23 23 22 22 23 25 24 24 27 28 31 36 39 41 41 40 41 42 43 45 47 48 51 53 54 55 58 62 63 63 65 66 65 67 71 71 70 74 75 72 70 68 67 68 69 69 70 69 67 64 62 61 62 65 69 74
10 8 8 8 7 7 7 7 7 8 11 13 11 10 9 9 10 10 8 11 19 23 15 12 25 36 33 29 27 25 24 25 25 24 23 27 29 24 24 28 29 33 38 40 41 39 40 41 43 46 47 47 49 51 53 55 56 59 62 63 64 67 68 67 68 71 72 73 73 72 70 68 68 66 64 63 64 65 63 62 63 63 65 66 70 77
9 9 9 8 7 6 7 7 6 7 11 12 9 8 9 9 9 10 9 11 16 19 17 13 19 32 36 31 26 25 26 27 28 27 24 26 30 26 23 26 28 30 36 40 41 40 40 42 43 46 48 47 47 49 51 54 56 57 60 62 64 68 71 70 68 70 73 73 72 73 71 68 67 63 60 60 62 63 61 61 65 68 68 69 74 79
7 9 9 8 8 7 6 6 5 6 9 10 8 7 9 8 9 9 9 10 11 14 21 17 15 28 36 32 27 26 28 29 29 30 27 25 27 27 25 26 26 28 33 37 41 41 40 41 43 45 48 47 46 48 50 52 54 57 59 62 65 68 71 72 71 71 73 73 72 74 74 70 67 64 61 60 61 64 63 63 68 70 71 74 78 81
7 8 8 7 8 7 6 5 4 6 7 7 8 7 8 8 8 9 9 11 12 16 23 21 15 26 36 33 30 32 31 30 29 28 28 26 25 27 26 26 27 28 31 34 38 40 40 40 42 44 47 48 47 47 49 51 53 57 60 63 66 67 69 71 73 72 72 73 74 75 76 74 69 65 64 63 63 64 66 67 68 70 72 77 80 81
7 6 7 7 7 6 5 5 4 5 5 6 7 7 8 8 9 11 12 12 14 19 23 20 15 21 32 32 30 32 31 28 29 28 27 26 25 26 26 25 27 29 30 32 34 38 40 39 40 43 47 48 47 48 49 51 53 57 61 64 66 68 69 70 72 72 72 73 75 76 76 75 71 67 67 67 67 67 68 68 69 70 71 75 79 80
7 8 8 6 6 5 5 5 4 4 4 5 7 8 10 11 11 13 15 16 18 21 20 16 12 15 27 32 27 26 26 24 26 26 27 26 24 26 26 23 25 29 30 30 31 36 39 41 42 43 47 48 48 49 51 52 54 57 62 65 68 70 70 70 72 72 72 73 75 75 75 74 72 69 69 69 68 68 70 69 69 68 68 72 78 80
9 8 8 6 6 5 5 5 5 4 4 5 7 10 14 15 16 18 19 19 21 22 17 12 11 12 20 27 24 21 22 22 23 24 24 24 23 25 27 24 23 27 30 29 30 33 37 42 43 43 46 49 49 50 51 53 55 58 63 66 70 72 71 71 72 73 73 73 74 74 74 75 74 71 70 69 66 67 70 69 66 66 67 71 77 78
12 10 7 7 7 5 6 6 6 6 5 6 7 10 16 18 20 23 22 20 21 22 16 9 12 14 15 20 21 19 19 19 20 22 21 21 22 23 25 24 22 24 28 29 30 31 35 41 43 43 45 49 50 50 50 52 54 58 63 67 70 73 73 73 73 74 75 75 74 74 74 75 75 74 70 67 65 66 68 67 64 64 67 71 75 76
15 16 11 8 7 6 6 6 6 6 5 6 5 7 13 16 18 21 21 20 20 22 18 11 13 17 17 20 19 16 16 17 18 20 20 20 20 21 23 23 22 23 26 29 30 31 35 40 42 42 43 48 51 50 50 51 53 57 63 67 70 73 75 74 74 75 76 76 76 75 75 75 75 75 71 67 65 65 65 64 62 64 67 70 73 75
14 16 10 8 7 6 7 6 5 6 6 6 5 6 10 11 13 18 20 18 17 20 20 14 15 18 18 19 17 14 15 15 16 17 19 21 21 20 22 23 23 24 25 28 31 33 36 40 42 42 42 45 49 50 49 49 52 56 62 67 70 72 75 75 75 76 76 77 76 75 76 76 75 75 72 68 65 64 63 61 62 64 67 68 71 73
13 13 8 8 8 6 7 6 5 6 7 6 5 6 7 6 9 15 18 16 16 21 20 14 15 17 15 15 14 14 15 15 16 17 17 20 21 21 23 24 24 25 26 29 33 35 38 42 43 41 41 43 47 49 49 48 50 54 60 66 70 72 75 76 75 75 76 77 77 76 76 76 76 75 73 70 66 64 62 60 62 65 67 67 69 72
12 13 9 7 8 7 6 6 6 6 6 7 6 6 5 5 8 12 16 17 19 23 19 13 15 17 18 18 14 13 15 15 15 16 15 17 22 23 22 23 25 25 26 29 33 35 38 42 43 41 40 41 44 47 48 47 49 51 57 64 69 72 75 76 76 75 75 76 77 77 76 76 76 74 73 71 67 65 64 63 64 66 67 66 66 68
9 11 10 7 8 7 5 6 8 6 5 6 5 4 6 9 11 13 16 18 21 22 18 15 16 17 20 22 15 12 15 16 15 16 15 16 22 23 21 23 24 24 26 29 31 34 36 39 41 41 40 40 41 44 46 47 48 51 56 61 66 70 73 75 75 75 75 74 75 77 76 75 75 74 74 72 68 67 66 65 65 66 67 67 65 64
8 11 12 8 6 7 6 7 9 8 6 5 5 4 5 8 12 13 13 14 18 22 21 19 18 18 21 21 18 15 14 14 16 17 15 14 20 22 20 21 23 23 26 28 29 33 34 35 36 37 38 39 40 43 45 46 48 50 54 60 65 69 72 74 74 75 75 74 74 76 76 75 75 74 74 72 69 69 68 66 65 66 68 68 67 66
8 12 15 11 7 8 8 8 8 8 7 6 6 6 5 6 9 10 10 9 13 19 24 24 20 20 21 17 15 17 16 14 15 18 17 14 16 20 19 20 21 21 25 27 28 30 32 32 32 34 36 37 39 43 45 46 47 49 52 58 63 67 71 73 74 74 75 75 74 74 75 76 75 74 73 72 70 69 69 67 65 65 68 69 69 68
8 11 15 13 10 10 9 8 7 7 7 6 6 6 6 7 8 10 12 10 8 12 19 21 21 24 22 14 12 15 15 15 15 16 17 14 14 17 18 18 19 22 25 28 28 29 30 31 31 32 35 36 38 42 45 46 47 48 51 55 60 65 69 71 72 74 74 74 74 73 74 75 74 74 73 72 72 70 68 67 66 66 67 69 68 68
9 10 13 14 11 10 9 7 7 6 5 6 6 5 6 7 8 10 15 16 11 10 13 14 19 26 21 13 14 15 13 15 15 17 18 15 13 15 16 16 19 24 27 28 28 28 29 32 32 33 37 37 36 40 44 46 47 48 49 53 58 62 66 68 70 72 73 74 73 72 73 74 74 74 74 73 73 71 69 68 67 67 67 67 67 66
11 11 14 15 13 10 9 7 6 6 6 6 7 5 6 6 6 7 13 19 15 12 15 15 17 21 17 12 17 20 19 16 14 15 17 15 14 13 14 19 22 26 29 27 27 27 27 31 34 36 40 40 38 39 43 45 46 47 47 50 54 58 62 66 68 70 72 73 73 72 72 73 73 73 74 74 72 71 70 69 68 68 67 67 66 66
11 13 16 19 19 16 15 14 10 8 7 7 7 6 6 6 5 5 9 14 15 13 16 18 19 21 18 13 15 20 21 17 13 14 14 12 14 14 15 23 26 27 28 27 26 26 27 32 36 39 41 42 40 40 42 44 44 45 45 47 50 54 59 63 65 68 70 71 72 72 72 72 72 72 74 74 72 71 71 70 69 69 68 67 67 67
9 14 16 18 22 20 19 20 15 10 8 8 8 7 6 6 5 6 7 13 21 23 18 15 18 23 21 12 8 11 15 16 15 16 14 12 15 16 18 26 29 28 28 28 27 27 30 36 39 39 41 42 40 41 42 43 43 43 44 44 46 50 54 59 62 65 68 70 70 71 72 72 72 72 73 73 72 71 70 69 69 69 69 67 67 67
10 16 16 16 19 19 19 19 15 12 10 8 9 8 7 6 5 6 8 10 18 26 24 21 21 22 22 17 11 9 11 14 17 20 23 25 28 31 30 30 29 28 28 28 30 31 33 38 40 40 42 42 40 41 42 42 42 43 43 43 43 46 50 54 59 63 66 68 69 69 71 72 71 70 71 72 71 70 69 69 68 68 69 68 67 66
14 15 15 16 17 15 17 17 13 11 10 9 9 8 8 8 6 7 9 8 10 15 21 27 27 20 16 16 15 15 16 18 18 20 28 35 38 40 38 33 28 27 30 32 34 35 36 39 41 42 44 43 41 42 43 42 42 42 43 43 42 43 47 51 56 60 64 67 67 68 69 70 70 69 69 70 70 69 68 67 66 67 68 68 67 66
21 19 14 14 14 13 12 12 11 11 11 9 8 9 8 9 8 8 9 8 11 14 13 21 31 29 17 11 12 18 25 25 17 14 21 33 39 39 37 34 30 29 34 38 40 40 41 43 45 47 47 46 45 44 45 44 42 42 43 43 42 42 44 49 54 57 62 66 66 66 67 69 69 69 69 69 69 68 67 66 65 65 66 67 66 66
23 26 19 10 12 13 10 11 10 10 11 9 8 8 8 8 8 8 8 7 9 15 12 12 27 35 25 14 10 16 26 27 20 14 13 22 34 39 36 32 30 30 33 38 40 40 42 45 47 50 51 49 48 46 46 45 44 43 43 42 42 41 43 48 53 55 59 64 65 64 65 67 68 68 68 69 69 68 67 66 64 63 63 65 65 66
22 29 23 13 15 15 9 10 10 8 11 10 9 8 7 8 8 6 8 8 8 14 14 11 20 29 27 21 15 17 23 22 19 17 13 16 26 35 36 31 28 29 31 36 40 40 42 45 47 50 53 51 49 47 45 45 44 43 43 42 41 41 41 45 50 53 56 60 63 63 63 65 66 67 67 68 69 69 68 66 64 62 61 62 64 66
26 26 22 21 27 23 13 11 10 9 10 10 10 11 8 8 9 7 7 8 8 13 16 16 17 18 21 22 16 15 20 21 22 24 21 19 23 28 32 30 28 29 30 34 39 39 40 43 45 48 51 49 47 46 44 44 44 43 42 42 41 40 41 43 47 51 54 57 60 62 62 64 65 66 67 68 68 69 69 67 65 63 62 63 65 67
29 26 22 25 32 28 16 12 11 10 13 14 12 11 10 9 9 8 8 8 8 8 12 19 23 21 23 26 19 15 17 18 23 28 25 23 25 27 30 28 26 30 31 33 38 38 36 38 41 45 46 44 44 43 42 42 43 43 42 41 40 40 40 42 45 49 53 55 57 60 61 62 65 66 67 67 68 69 69 68 67 64 63 65 68 70
30 30 27 24 27 27 21 15 15 16 18 17 11 9 11 11 10 9 9 8 8 7 7 12 18 18 19 21 20 20 19 16 20 24 21 21 24 27 29 28 26 29 32 34 36 36 36 37 40 42 41 41 41 40 39 40 42 42 40 40 40 40 40 41 42 47 52 54 55 57 59 62 64 65 67 67 68 69 69 68 68 66 64 67 72 74
30 33 31 25 25 29 26 22 26 28 22 15 12 10 9 9 10 11 12 10 10 12 12 9 11 15 19 21 22 24 27 27 27 27 23 18 16 17 18 21 25 28 32 36 38 38 39 41 42 44 43 40 39 39 39 39 40 41 40 39 39 39 39 40 41 44 50 52 54 56 58 61 63 64 67 68 68 69 69 68 68 68 68 70 74 75
31 35 35 31 25 25 29 31 32 30 22 16 15 13 12 13 13 12 14 16 17 20 22 22 24 28 30 31 30 29 28 26 26 29 28 20 16 15 13 15 22 26 27 34 40 42 44 45 45 46 46 43 41 41 39 38 38 40 39 38 38 38 38 39 40 43 47 50 51 54 56 60 63 65 68 70 70 70 70 69 69 70 73 74 75 76
28 35 43 44 31 23 29 32 27 24 23 22 19 16 18 22 24 26 30 30 28 27 27 33 39 39 35 34 35 34 31 28 28 29 25 17 15 16 14 13 18 21 20 26 35 39 43 45 43 43 46 47 45 42 39 37 36 37 38 37 37 38 37 38 39 42 45 47 48 50 54 57 63 67 70 71 72 73 72 72 73 75 76 77 77 75
27 33 44 50 45 34 30 29 29 28 27 26 24 19 18 21 27 35 41 41 40 36 33 38 45 46 43 41 38 36 35 37 41 38 29 23 19 15 14 11 9 10 13 17 24 33 41 44 41 40 43 45 45 42 39 36 35 36 38 37 36 37 38 38 40 42 44 46 47 47 51 56 62 68 71 73 74 75 75 76 78 78 77 76 76 75
26 32 37 43 49 47 38 30 28 27 29 33 29 18 14 19 23 25 35 47 51 44 40 45 53 55 55 52 46 44 46 50 54 50 40 35 29 20 19 19 13 10 11 11 13 21 32 39 40 40 41 42 43 42 39 37 35 36 38 38 36 37 38 38 39 41 43 44 45 46 50 57 63 68 72 75 77 77 79 80 80 79 77 75 74 73
33 41 42 39 42 47 47 39 28 26 36 40 29 17 16 21 22 26 40 53 56 52 52 59 65 66 66 64 61 64 68 68 68 62 50 42 37 29 26 28 27 24 22 20 19 19 26 36 42 43 44 43 41 39 39 39 38 38 39 39 37 37 38 37 37 39 41 43 45 49 54 60 67 71 75 78 79 80 81 81 80 79 77 74 72 70
48 53 55 52 48 43 47 49 38 35 46 44 30 24 23 23 28 40 51 56 57 62 66 65 66 69 70 70 74 76 74 68 64 62 56 51 50 45 38 36 35 32 31 33 34 33 34 41 46 47 47 45 42 40 41 42 43 43 41 40 40 39 37 35 35 38 43 48 52 56 61 66 71 75 77 79 80 82 82 81 81 79 77 75 72 70
65 66 65 66 61 45 41 54 54 47 47 42 33 32 32 37 48 55 59 62 64 69 71 67 66 69 68 70 76 76 71 65 62 63 63 61 62 62 59 53 47 44 42 43 46 48 47 47 46 44 44 44 43 43 43 45 48 48 45 44 43 39 36 36 38 44 53 59 63 66 70 73 74 76 79 80 80 81 82 82 81 80 79 78 75 71
73 78 78 74 70 56 47 59 69 62 47 33 35 48 56 63 68 64 64 69 68 68 73 73 70 70 69 72 77 76 74 74 73 72 73 72 71 72 73 72 69 65 60 58 60 61 60 61 60 58 56 53 51 50 49 49 51 52 52 52 46 39 41 46 51 58 66 70 73 75 76 77 77 78 80 81 80 81 83 83 82 82 81 80 77 75
77 86 93 86 80 77 68 63 67 66 51 34 38 59 67 65 65 66 68 73 71 70 75 78 76 73 73 75 79 79 80 82 80 78 80 80 78 78 79 81 83 81 76 75 76 71 69 73 78 79 77 70 63 61 60 61 63 60 56 54 49 46 54 63 67 72 77 78 79 81 81 80 80 81 82 82 80 81 82 82 82 82 81 79 78 78
81 85 93 90 83 82 79 73 70 71 66 51 45 55 60 58 60 64 65 69 72 72 72 75 75 74 73 74 78 82 83 83 81 79 81 82 82 83 84 85 86 86 84 84 84 80 76 79 82 84 87 84 76 71 70 75 83 81 70 63 63 67 74 79 80 82 84 84 84 84 83 84 83 83 83 82 81 80 80 80 81 80 77 74 73 72
75 80 87 88 82 72 67 72 78 80 78 66 51 50 57 57 57 58 60 64 68 67 66 69 73 74 73 73 76 81 82 81 80 79 80 84 85 86 87 89 89 89 88 87 87 84 80 81 84 86 90 92 90 87 86 86 91 95 92 87 85 86 89 90 90 91 91 92 91 89 87 87 87 86 85 83 80 78 76 74 75 74 70 69 69 70
70 78 80 82 84 79 72 77 82 83 84 79 63 52 53 54 53 56 60 62 62 60 60 64 68 71 72 71 73 78 79 78 80 81 82 86 88 88 88 91 92 93 94 92 90 87 82 82 87 90 93 95 97 97 97 95 95 98 99 97 93 92 93 93 92 92 93 94 93 90 87 87 88 87 85 81 79 77 74 71 70 68 68 69 70 71
75 79 80 80 85 86 83 83 84 81 81 82 70 55 51 53 52 52 54 55 54 54 54 56 60 64 66 68 69 71 73 74 77 80 81 83 87 88 90 92 93 93 94 94 93 91 89 89 92 94 95 97 97 97 98 99 98 97 97 95 93 92 91 88 85 86 87 87 88 88 87 87 87 85 82 79 78 77 76 73 68 66 67 68 68 67
77 83 86 86 89 89 85 86 88 84 81 79 69 55 51 52 50 49 50 49 49 50 50 51 55 57 60 64 66 68 72 73 74 77 79 81 83 85 87 92 92 88 89 93 94 92 92 92 93 95 97 96 94 95 97 95 89 90 94 96 93 93 91 85 82 83 85 85 86 88 88 87 85 82 80 79 79 78 78 74 69 65 66 66 65 62
82 91 92 91 95 95 90 91 95 94 91 87 75 59 52 51 51 51 52 50 49 52 53 55 58 57 57 60 63 67 73 74 72 73 76 79 82 83 83 86 89 88 87 90 91 90 90 91 91 93 98 97 92 93 97 91 78 79 89 91 87 87 88 85 83 84 85 84 85 87 86 84 82 81 80 79 79 80 80 76 70 64 63 63 62 60
88 90 93 96 98 95 89 89 93 95 94 90 79 65 55 52 52 53 53 52 53 55 57 59 62 62 61 61 61 64 71 73 70 70 71 73 77 79 78 78 83 88 89 90 91 92 92 92 92 92 94 95 91 91 96 91 78 76 82 83 80 81 83 83 84 84 82 82 84 84 83 83 82 81 80 79 78 78 77 75 71 65 60 60 61 60
Wind_Speed
7 6 8 8 8 9 11 13 12 12 13 15 13 10 9 8 9 11 8 13 14 9 7 11 11 9 11 12 10 13 15 11 13 15 14 14 14 14 15 14 15 14 13 15 21 27 30 31 31 29 30 31 29 31 35 35 36 33 30 32 30 29 32 32 32 32 28 25 24 22 22 21 18 18 18 16 15 15 15 15 14 14 14 13 13 12
8 9 10 10 11 11 12 14 15 15 14 15 13 10 9 8 8 9 7 15 15 8 9 11 11 10 12 12 9 13 16 13 13 15 15 16 16 15 15 17 16 13 12 14 16 21 28 29 30 30 29 32 31 30 34 35 36 35 31 33 33 30 31 32 32 31 30 28 27 25 23 22 20 19 19 18 16 16 16 16 16 16 15 15 14 14
9 10 11 12 12 12 13 14 17 16 14 12 10 9 9 8 8 10 6 14 16 7 8 13 10 9 11 12 9 10 13 12 13 15 15 16 16 15 16 16 16 14 13 14 14 17 24 29 30 30 29 33 34 32 32 33 35 35 33 32 34 33 30 31 33 31 30 29 28 26 24 22 20 19 20 19 18 18 17 16 17 18 17 16 15 15
7 8 11 12 11 14 15 14 15 14 12 11 9 7 8 9 8 7 6 10 14 8 9 14 10 6 9 11 9 9 10 9 11 15 15 16 16 17 18 17 17 17 16 16 16 15 19 26 29 29 29 32 34 33 32 33 35 36 36 33 34 35 31 29 32 32 30 29 27 24 23 21 19 18 20 20 20 20 19 17 18 20 19 17 17 15
9 7 12 14 13 15 15 15 14 11 9 12 13 10 8 10 11 9 9 8 9 9 10 11 7 4 8 11 9 8 8 9 10 13 14 14 16 17 18 17 17 19 18 17 18 17 16 21 26 29 30 32 33 34 35 36 36 36 37 36 34 35 34 30 30 31 30 28 26 23 21 21 19 18 20 22 21 20 21 20 20 20 20 18 17 16
12 10 12 17 16 16 15 14 15 11 8 10 15 15 13 12 13 13 14 8 3 5 6 7 4 3 8 12 11 8 9 10 10 12 13 13 15 16 16 16 16 18 18 18 19 19 17 20 26 29 31 31 31 34 37 38 37 35 36 37 34 34 36 34 30 29 30 29 28 26 24 23 22 20 22 22 22 22 23 22 20 20 20 18 17 17
9 13 13 15 17 17 16 12 14 15 9 7 11 15 17 17 16 16 16 8 2 4 6 8 5 3 6 11 13 12 12 12 10 11 14 11 12 15 15 15 16 16 16 17 19 19 19 20 23 26 30 32 32 34 37 37 37 36 35 37 36 35 35 36 33 30 30 31 30 28 27 26 24 23 22 21 20 23 24 22 20 20 19 19 18 19
9 14 15 16 15 15 14 11 12 15 11 8 8 12 15 17 18 18 15 9 4 4 7 12 9 4 5 8 13 14 13 13 11 11 13 11 11 14 16 16 17 17 17 17 17 19 19 20 22 25 30 33 33 33 34 34 36 37 37 38 37 35 34 35 36 33 31 33 32 30 28 27 24 23 23 21 19 22 23 21 20 20 20 18 19 20
9 14 16 17 15 11 11 11 12 14 12 9 9 11 12 15 17 16 13 9 6 4 5 11 11 5 4 6 10 14 14 13 13 12 12 12 11 12 14 16 18 18 18 18 18 20 19 21 26 29 31 33 33 33 33 34 36 37 38 38 37 36 34 33 35 36 34 33 33 31 29 28 26 23 22 22 21 20 20 21 21 22 21 20 19 20
8 11 14 16 13 9 9 12 14 15 12 10 11 12 11 12 13 12 11 7 5 6 6 9 12 6 4 5 8 10 12 13 12 10 10 10 11 11 12 15 17 16 16 17 18 19 20 24 30 32 32 34 34 34 34 34 34 35 36 38 38 38 36 35 35 37 36 34 34 33 30 29 28 25 22 22 22 22 21 22 23 24 23 22 21 22
10 10 11 12 11 10 9 11 15 16 13 10 11 12 11 10 9 7 7 6 5 5 6 9 12 9 5 6 8 9 11 14 12 10 10 12 13 13 12 13 15 15 14 16 17 18 21 27 32 33 32 35 35 35 35 35 35 36 36 37 39 38 37 36 35 36 37 35 34 33 32 31 29 28 25 23 24 25 24 24 25 25 24 22 23 24
14 12 9 8 10 11 10 10 12 15 15 11 9 8 7 7 6 5 4 5 6 7 6 7 9 9 6 6 8 10 12 16 15 13 14 14 14 14 13 12 14 14 15 16 16 17 18 21 26 29 31 34 35 35 35 36 36 36 37 37 37 38 38 37 35 36 37 37 35 34 33 32 31 30 28 27 27 28 27 27 27 26 24 23 25 26
11 13 11 9 10 12 11 8 9 11 12 11 8 6 7 5 5 6 5 4 6 6 7 8 8 8 6 5 12 14 14 17 17 16 17 17 16 14 14 13 12 13 15 16 15 15 16 16 18 23 28 31 34 36 36 36 36 35 36 37 37 37 38 37 36 36 37 37 36 35 34 33 32 32 31 30 30 30 29 29 29 27 26 27 27 28
7 10 14 13 9 11 13 8 6 9 9 10 10 7 7 6 6 7 6 4 5 5 7 10 9 8 6 5 13 17 16 18 19 19 19 19 18 17 16 15 13 13 15 15 15 15 15 16 17 21 27 30 33 36 37 36 36 36 36 38 38 37 38 38 37 36 36 37 37 36 35 34 33 33 33 32 31 31 31 31 30 29 29 30 30 30
8 7 11 14 8 9 15 12 6 6 8 11 10 7 7 7 7 7 5 4 4 4 6 9 7 6 5 6 13 18 17 17 18 18 19 19 19 18 17 16 14 15 14 14 15 16 16 17 19 22 27 30 32 36 36 36 37 37 36 38 39 37 38 38 37 37 37 37 37 37 36 35 34 34 35 35 32 32 33 32 32 31 31 31 32 32
11 8 8 14 12 9 13 13 10 6 7 8 8 9 10 9 6 3 3 3 3 3 4 5 5 4 5 7 10 15 16 17 17 17 17 19 20 18 15 15 14 13 14 13 14 15 16 17 18 22 27 29 31 34 36 36 37 37 37 38 40 39 39 39 38 37 37 37 37 37 37 36 36 35 35 36 33 32 34 34 34 33 32 32 33 33
8 7 9 14 15 15 12 12 14 10 5 5 9 12 8 6 6 3 4 4 3 5 6 5 6 4 3 5 5 8 13 16 16 16 17 18 19 18 14 14 15 15 15 14 14 15 16 16 18 23 28 29 30 33 36 37 37 37 37 38 39 39 39 39 39 38 37 36 37 38 38 37 37 37 37 37 34 32 34 35 35 34 33 33 33 32
6 4 9 14 16 18 15 11 15 15 9 4 6 8 3 4 7 4 4 5 4 6 5 6 8 5 3 4 6 8 10 14 15 14 15 15 17 19 17 16 17 18 17 16 16 16 16 16 18 22 28 31 33 35 37 38 37 37 37 39 40 39 39 40 39 39 38 37 37 37 38 38 38 39 39 37 35 33 35 36 35 34 34 34 33 32
6 4 7 13 15 16 15 12 12 14 14 10 5 5 5 7 9 6 4 6 6 7 4 6 8 6 6 5 7 12 10 12 14 14 14 13 15 19 20 20 20 19 17 16 17 16 15 16 17 21 27 31 34 35 36 38 37 37 37 38 40 41 41 41 40 39 39 38 37 37 39 40 39 40 39 37 35 35 36 37 36 35 35 35 34 33
7 4 5 10 13 13 12 10 9 9 12 12 9 7 7 6 6 6 5 4 5 6 5 6 7 5 6 5 8 12 12 12 13 15 16 15 15 18 19 19 19 18 17 16 17 17 17 18 19 24 29 31 33 34 34 36 37 36 36 37 39 39 40 40 40 40 39 39 37 36 38 40 40 40 40 38 37 36 37 38 37 36 36 36 35 35
6 6 4 6 9 11 10 9 10 9 10 11 10 10 8 4 3 5 6 6 6 5 4 5 6 5 5 6 7 9 9 12 12 13 15 15 15 19 20 20 19 18 17 18 17 17 18 19 19 25 30 31 31 32 33 36 37 37 36 36 37 38 39 40 40 40 39 38 38 37 39 40 41 41 40 39 38 37 37 38 38 37 36 36 36 36
6 6 5 5 6 8 8 11 14 14 12 11 10 11 10 5 4 5 7 8 8 6 4 4 5 6 5 5 8 9 8 10 11 12 13 13 14 17 20 20 19 18 17 18 18 17 18 18 17 21 26 27 28 30 33 36 37 36 36 36 37 38 39 40 40 40 39 39 39 39 40 40 41 41 40 40 38 37 38 38 39 39 37 36 37 37
8 5 6 7 7 8 8 12 18 19 17 13 11 11 10 7 6 6 6 5 6 7 6 4 5 6 6 7 8 9 9 8 10 12 13 13 12 14 17 18 17 18 18 19 19 18 17 17 16 18 23 27 29 31 33 35 36 37 37 37 36 37 38 39 39 40 39 39 40 41 41 40 40 41 40 39 39 39 39 39 39 40 38 37 38 38
10 6 6 6 6 9 10 9 16 20 17 13 11 11 11 10 9 7 5 4 5 6 6 6 7 7 6 8 7 7 9 8 8 12 14 14 11 11 14 16 16 18 19 19 19 18 16 15 14 15 17 21 26 29 33 35 36 37 37 37 37 37 39 39 38 39 39 40 41 41 41 41 41 41 40 39 39 40 41 40 40 40 39 38 38 38
9 7 6 6 5 6 9 7 10 17 15 9 9 11 14 15 13 10 7 4 5 9 8 6 6 7 6 7 7 7 7 6 6 8 11 12 11 10 10 13 16 18 19 20 19 17 15 13 13 14 13 16 22 26 30 34 35 36 37 38 37 37 38 38 38 38 40 40 40 40 41 42 42 42 41 40 40 41 41 41 40 40 40 40 39 38
9 9 8 8 8 9 10 7 5 9 11 8 9 12 15 18 17 12 7 5 6 9 9 7 5 6 5 10 14 15 11 7 5 3 4 7 9 10 9 12 16 17 18 19 17 15 14 13 13 14 13 15 21 25 28 32 34 35 37 38 37 37 37 38 37 38 40 41 40 40 41 42 43 43 42 42 41 41 41 41 41 41 41 40 40 39
6 9 11 13 12 9 9 8 4 4 9 12 15 16 15 16 18 13 7 7 7 4 6 8 7 6 7 9 16 18 14 9 6 1 3 1 4 5 9 14 16 17 16 16 15 14 14 14 15 16 15 16 22 26 28 31 33 34 35 37 38 37 37 37 37 38 39 41 41 41 41 43 44 44 43 42 42 42 42 42 41 41 42 41 40 38
4 8 14 18 18 13 9 8 8 8 9 14 17 18 17 15 15 14 12 12 7 4 6 9 7 8 11 9 9 12 10 8 8 5 6 6 3 3 6 14 18 17 15 14 14 16 16 16 15 16 15 16 21 24 26 29 32 34 35 36 37 36 36 37 38 38 39 40 41 41 42 44 45 45 43 43 43 42 42 42 41 41 41 41 40 39
4 7 12 17 19 18 15 12 12 13 12 13 16 18 19 19 17 15 15 14 9 7 9 8 6 7 11 11 10 9 6 6 9 9 8 8 7 6 7 12 14 15 14 13 14 16 16 16 15 15 14 15 18 21 23 25 29 31 33 35 37 37 37 38 38 38 38 39 41 42 43 44 44 44 43 43 43 43 42 42 41 39 38 39 40 39
2 5 10 15 16 18 20 18 16 15 14 13 15 17 17 19 21 20 16 12 11 10 11 9 9 9 8 9 11 8 7 6 5 6 8 8 10 9 9 11 13 14 14 14 15 16 16 16 15 14 14 14 15 18 22 25 29 32 34 36 38 38 38 39 40 39 39 39 42 44 44 44 43 43 43 43 44 44 42 40 39 38 38 39 40 39
9 5 8 9 9 14 19 20 19 18 17 14 12 16 18 18 20 20 17 12 9 8 9 10 9 8 7 7 8 6 5 6 3 3 6 7 9 12 10 11 12 13 12 12 12 13 13 14 14 14 14 13 15 19 23 26 30 33 34 36 38 38 39 40 40 41 40 41 42 43 43 43 43 42 43 43 43 42 40 39 38 37 37 38 39 38
13 5 6 5 2 6 13 19 21 20 18 17 15 15 18 16 14 13 14 14 12 10 8 8 9 8 7 6 5 6 4 6 6 6 6 5 6 11 12 12 12 14 15 15 14 13 14 15 15 15 15 15 17 22 25 28 30 32 33 36 39 40 40 40 41 41 42 42 42 42 43 43 43 43 43 43 41 40 39 38 37 37 35 34 35 36
11 9 4 5 4 4 7 15 22 19 15 16 17 13 10 10 10 11 11 13 16 13 7 5 6 6 5 6 6 7 7 6 7 6 6 5 4 6 10 12 12 11 13 14 15 16 16 15 15 16 16 17 20 26 30 32 31 32 36 39 41 40 39 39 40 41 41 42 42 43 43 43 43 42 42 41 40 38 38 37 36 37 36 33 32 32
12 12 6 4 5 5 7 9 12 14 13 12 11 9 9 9 10 10 9 9 11 11 9 8 8 6 4 5 7 8 9 8 8 8 7 7 6 5 6 9 10 10 12 15 16 17 16 14 13 15 18 22 26 31 35 35 35 38 40 41 40 40 40 40 39 39 40 42 44 44 45 44 43 42 41 40 39 37 36 37 37 37 35 32 29 29
12 11 6 4 4 4 4 4 5 9 9 6 6 8 12 13 11 9 9 7 4 2 5 9 10 6 2 1 3 3 4 7 6 7 8 8 8 9 9 9 9 11 14 16 16 16 17 17 15 15 17 23 29 31 33 34 36 37 38 38 38 39 41 40 39 39 41 43 44 45 45 44 44 43 41 39 38 37 36 36 35 34 32 30 28 28
8 8 7 3 4 4 4 4 5 5 2 3 3 7 7 7 7 5 5 5 3 7 5 1 1 2 6 7 5 4 3 3 2 2 5 6 7 9 10 10 9 9 11 14 15 15 16 17 17 18 21 25 29 29 30 33 36 35 34 36 37 39 41 41 38 38 40 43 45 46 46 46 44 42 39 38 37 37 36 35 34 32 30 28 28 28
6 6 6 3 1 5 5 4 3 3 3 4 4 3 3 3 2 3 2 2 4 7 8 6 7 8 8 8 7 7 7 6 6 5 5 4 3 4 6 7 7 7 8 10 12 15 17 19 21 23 25 26 27 28 30 33 35 34 32 34 36 37 39 39 37 37 40 43 46 47 47 46 43 40 38 38 38 36 36 35 32 30 29 29 29 29
6 4 4 4 2 1 3 3 3 4 5 5 3 1 3 7 9 7 5 3 5 6 8 9 9 9 8 7 8 8 8 8 5 6 7 9 10 8 7 7 7 9 9 9 10 13 17 21 24 25 26 26 26 30 33 34 35 33 31 32 35 36 36 36 37 39 41 43 47 48 47 45 42 39 38 38 37 37 35 33 30 30 31 32 32 31
6 4 4 4 3 2 4 2 5 4 3 3 3 2 1 5 9 7 4 3 5 6 8 11 11 9 8 7 8 8 8 5 4 6 8 10 10 8 8 9 10 9 8 8 10 12 16 24 28 29 29 27 27 31 34 35 35 33 30 32 35 34 33 35 38 41 43 45 46 46 44 42 41 40 39 38 37 35 34 31 30 31 32 32 32 30
6 3 4 4 4 2 5 1 3 2 1 2 0 1 2 4 9 5 1 2 4 6 9 11 11 9 7 7 8 8 7 3 3 7 9 11 9 7 5 4 4 4 4 2 4 11 19 25 25 23 23 25 30 35 38 37 34 31 29 33 35 33 34 38 43 46 46 44 43 42 42 41 41 40 39 37 36 34 33 32 32 32 32 31 31 29
7 5 3 3 5 4 4 2 2 1 1 3 6 7 5 5 8 4 4 2 3 7 8 9 9 8 7 8 7 5 3 2 4 6 9 11 11 10 8 6 6 6 8 10 8 3 16 23 20 18 21 26 30 33 33 32 29 27 31 32 29 31 39 44 45 44 42 39 38 39 40 40 40 40 39 37 36 34 33 33 33 32 31 30 29 28
6 5 4 3 3 4 4 2 1 3 4 3 8 10 8 5 4 2 2 3 5 8 9 9 9 7 6 8 7 5 3 3 6 8 11 12 11 12 13 11 10 10 11 16 19 12 4 14 17 19 24 30 35 36 35 32 27 25 28 28 28 36 44 43 40 38 36 36 37 37 38 38 39 39 38 37 37 34 32 32 31 31 29 27 28 29
4 3 3 4 3 3 3 3 2 2 6 4 6 6 5 2 3 2 5 6 6 8 8 8 8 6 5 7 7 6 6 7 9 10 11 12 13 13 13 13 12 11 10 11 15 16 11 4 1 0 1 4 12 18 22 25 26 26 23 22 29 38 37 32 33 34 33 33 34 34 36 38 39 38 37 36 36 34 32 30 30 29 29 28 28 28
3 3 2 3 4 3 2 2 1 5 9 5 3 2 1 3 3 4 6 5 5 6 7 7 7 7 6 8 8 8 9 10 11 11 11 12 13 12 12 13 14 14 12 11 12 14 14 10 8 11 18 20 16 11 9 9 9 14 21 26 32 34 29 29 32 32 32 33 33 34 35 36 37 37 37 36 36 34 32 32 31 29 28 28 27 26
2 2 1 2 2 1 3 4 6 11 13 8 4 7 6 7 8 9 9 7 5 5 5 6 6 7 8 9 10 10 10 10 10 11 11 10 10 10 10 11 11 11 12 13 14 15 12 11 10 12 16 21 22 17 15 20 22 18 14 16 22 21 20 23 23 23 25 27 29 31 33 34 35 36 36 36 36 35 33 32 31 28 26 27 27 27
3 2 2 2 2 4 4 2 6 12 16 13 2 9 11 9 9 10 10 9 7 6 6 7 7 8 9 9 11 10 9 8 9 10 9 9 9 9 9 9 9 10 10 11 13 15 11 11 12 11 13 18 24 23 20 23 27 24 19 8 21 31 31 30 27 24 22 21 22 23 25 26 27 28 30 32 33 33 32 31 30 27 25 26 26 25
4 4 2 1 3 4 3 4 6 9 15 16 6 8 13 12 11 10 9 8 8 7 8 9 9 9 9 10 11 10 8 9 9 8 8 8 8 9 9 9 9 9 9 9 11 12 11 9 9 10 11 14 19 24 26 28 30 26 20 17 23 35 41 41 35 28 23 21 21 22 23 24 25 25 26 27 28 28 28 28 28 26 24 23 23 22
2 5 4 3 2 2 4 5 5 5 11 16 10 3 11 12 13 13 11 9 10 10 11 11 10 9 9 9 9 9 10 10 10 8 8 7 7 7 7 7 7 8 9 11 13 13 10 7 7 9 11 13 17 23 28 29 29 25 21 20 21 26 34 39 39 34 30 26 25 26 27 28 28 27 26 26 26 27 27 27 27 25 23 22 22 22
2 3 2 3 4 4 4 5 6 6 8 13 14 8 8 11 13 14 12 12 13 12 12 12 11 10 10 10 9 9 10 9 8 8 8 7 7 7 7 6 5 6 8 11 14 15 13 9 8 11 13 14 17 21 25 27 26 22 19 19 19 18 21 26 31 33 33 31 28 28 29 29 28 28 28 28 29 28 26 26 27 26 24 22 22 22
2 1 1 1 2 2 1 4 6 5 4 7 12 11 10 10 12 14 13 13 13 11 10 12 11 11 12 11 10 9 9 8 7 7 7 6 6 7 8 7 4 4 7 9 11 13 13 11 9 10 12 16 18 20 23 26 26 21 14 12 14 17 20 22 22 24 28 29 27 27 28 27 26 27 29 31 31 29 25 23 23 24 23 22 22 22
2 2 1 0 2 4 5 5 5 3 3 5 9 10 9 7 10 13 13 12 12 10 10 10 10 10 11 10 10 10 9 8 8 8 8 7 7 7 8 9 8 6 8 9 9 8 10 11 12 10 7 12 16 18 21 25 26 23 19 18 18 21 25 25 21 20 23 25 26 26 27 25 25 26 28 30 31 31 28 25 23 21 21 22 23 23
Wind_Direction
195 212 222 216 219 211 206 214 221 225 231 243 251 249 242 234 236 236 198 165 165 166 171 167 181 181 161 178 185 165 169 175 170 165 167 167 166 170 170 171 178 186 191 185 181 178 177 180 184 184 182 181 180 180 182 183 186 189 187 185 185 183 184 187 187 190 193 191 190 193 198 202 203 198 196 199 199 198 202 205 210 211 213 215 217 218
200 219 222 215 217 223 215 211 220 227 230 240 252 263 266 261 254 252 200 162 165 172 177 172 179 182 169 172 175 163 169 180 176 171 171 170 167 170 172 172 178 184 182 182 183 180 177 179 183 183 181 181 182 182 183 184 185 188 188 188 190 187 185 187 188 189 192 193 194 195 197 201 204 204 204 206 207 205 205 208 212 214 216 216 218 221
207 224 221 213 213 225 231 217 214 223 232 240 246 256 265 271 279 285 249 170 169 175 172 173 179 182 168 165 174 170 171 182 178 173 174 171 167 170 174 174 175 178 177 180 185 183 180 180 182 182 182 184 185 185 185 185 186 187 189 190 192 191 189 189 190 191 194 196 197 197 199 200 202 207 209 209 208 205 206 212 215 215 216 215 217 218
213 213 214 218 214 218 231 230 215 213 227 240 244 245 253 262 269 285 273 193 179 170 160 173 178 169 158 160 181 186 176 182 181 177 177 175 171 172 176 175 172 175 177 179 183 186 183 181 182 183 184 185 185 186 187 186 186 189 191 191 192 194 194 191 191 194 197 198 197 199 200 200 204 211 211 208 209 207 206 211 216 216 216 215 216 214
236 207 197 215 224 219 224 229 221 210 215 229 237 244 249 254 257 262 269 244 187 164 157 163 166 162 161 166 185 192 183 190 187 181 182 179 176 174 175 175 173 174 177 177 181 185 184 183 184 184 185 184 184 186 189 189 188 190 192 193 193 194 196 194 192 194 197 196 194 197 198 198 204 205 199 200 206 207 206 210 214 213 211 212 215 213
238 228 201 206 216 223 224 222 220 216 217 222 226 236 247 257 262 260 266 276 143 162 169 150 164 213 182 175 182 185 189 200 195 186 188 184 177 174 174 177 177 176 177 176 179 183 185 184 184 186 185 184 185 187 190 191 191 191 192 193 194 194 197 197 194 195 197 193 191 193 192 192 195 191 189 197 204 206 206 207 207 205 207 214 217 212
221 226 227 216 207 214 224 224 217 214 221 230 215 220 236 251 262 265 270 280 140 183 190 172 188 217 192 188 184 182 190 199 200 192 191 185 176 177 176 179 179 177 177 177 179 182 185 185 184 186 186 186 188 189 190 190 191 192 191 192 194 195 196 198 197 196 195 192 191 194 193 191 191 189 192 202 208 206 203 201 202 205 210 216 216 209
204 209 227 231 216 208 216 224 216 210 218 230 216 211 221 234 248 260 270 272 233 199 189 188 189 168 194 205 187 182 187 195 201 197 192 185 179 182 181 180 180 178 177 177 180 181 183 186 186 186 188 189 191 191 190 190 191 192 192 192 193 193 194 197 198 197 195 193 192 193 195 195 196 195 196 201 202 200 201 203 205 209 212 212 209 205
209 208 215 227 231 216 207 213 214 214 221 224 223 227 225 225 235 246 257 263 247 235 215 197 185 172 218 213 184 181 184 196 204 197 190 188 185 187 185 181 180 179 178 177 179 182 184 185 186 187 188 190 192 192 191 192 192 192 192 191 191 193 194 196 198 198 197 196 193 193 194 196 199 200 198 201 202 199 203 208 209 209 207 203 202 204
219 219 210 218 232 230 208 201 206 217 224 218 220 235 242 236 234 235 240 254 246 237 239 203 182 181 234 207 176 175 183 196 203 197 193 195 196 196 189 182 181 179 178 178 179 181 184 186 187 186 186 188 191 192 193 194 194 193 191 191 191 193 195 196 198 198 198 197 195 193 194 194 197 199 199 203 205 204 205 207 205 201 198 196 197 200
236 233 218 216 223 230 222 200 199 213 222 218 218 230 246 250 247 240 234 238 249 244 233 212 194 190 216 211 182 176 183 185 187 192 196 199 202 201 194 183 179 178 178 178 180 182 184 185 185 184 184 188 190 191 192 193 193 193 193 192 193 194 195 196 197 197 196 197 195 194 194 194 195 195 197 202 205 206 204 201 195 192 193 195 195 194
234 238 235 225 212 216 228 217 200 204 212 217 216 216 233 254 264 265 249 221 233 243 224 225 223 210 218 219 195 187 182 178 180 188 192 196 201 201 196 187 178 176 178 179 180 181 182 182 182 183 184 187 188 189 191 192 192 193 193 193 193 194 195 195 196 196 196 196 195 195 195 195 194 193 194 199 203 204 202 195 188 188 193 193 191 192
226 231 239 244 223 209 219 224 206 201 205 210 212 203 208 229 242 242 251 221 222 242 222 222 239 234 235 210 189 189 184 180 183 187 190 194 198 197 194 191 183 175 176 180 182 180 180 180 181 184 185 185 187 189 190 190 191 191 192 192 192 193 194 194 195 195 196 195 196 195 195 195 194 193 194 198 202 202 197 191 187 189 192 188 188 193
228 225 226 238 233 205 211 218 200 196 198 204 206 198 195 205 215 222 237 232 226 242 222 218 230 235 253 222 186 188 189 184 185 188 190 192 195 193 189 188 186 179 177 180 182 181 180 182 183 185 185 185 187 189 189 189 189 190 190 191 192 193 193 193 194 195 196 196 196 196 196 196 195 195 197 200 203 201 193 190 192 194 192 188 189 193
227 227 210 220 223 193 204 215 209 186 192 208 207 203 209 207 209 211 212 220 237 253 232 226 226 205 219 219 191 192 194 189 188 188 188 191 195 193 187 187 185 181 180 177 179 183 183 183 184 184 185 186 188 189 188 189 188 188 188 189 190 191 191 192 193 195 196 196 196 196 196 196 196 197 199 202 205 200 193 193 197 198 195 192 192 193
224 236 201 208 220 211 201 205 212 206 202 207 197 210 222 207 203 214 210 218 236 252 246 234 226 192 205 221 197 192 193 191 192 188 184 189 194 193 187 185 187 185 182 178 177 181 184 184 182 183 186 187 187 188 189 190 189 187 187 187 188 189 190 192 193 195 196 196 196 195 195 196 197 199 201 203 205 201 196 198 199 199 198 197 196 195
215 229 204 200 213 222 213 193 201 214 215 187 192 216 225 195 198 225 246 254 244 234 236 231 243 245 246 261 242 207 194 188 189 185 186 189 188 189 187 185 188 188 186 183 178 179 180 182 183 185 187 186 186 188 190 191 190 188 186 185 187 188 189 191 192 194 196 196 195 195 195 196 197 199 202 203 203 202 201 201 201 200 200 200 198 196
212 230 212 201 205 215 218 200 198 211 217 193 192 207 214 221 217 200 217 239 238 239 228 220 240 237 211 244 251 236 206 188 188 185 187 188 179 181 186 188 189 189 189 185 182 184 181 180 184 186 187 187 187 189 190 190 189 188 187 186 186 186 187 190 191 193 196 196 196 195 195 196 198 201 203 202 201 202 202 200 200 201 201 200 199 196
213 246 227 211 205 201 209 211 203 207 214 220 219 182 177 216 212 183 192 205 216 240 240 234 245 227 200 202 211 221 210 188 191 189 189 188 174 175 183 186 187 188 189 186 186 189 186 183 187 187 188 189 188 189 188 188 188 188 187 186 186 187 188 189 191 193 195 197 197 196 197 198 200 202 203 202 201 201 201 200 200 201 201 200 200 198
208 234 241 224 209 186 190 210 204 196 204 219 234 219 205 209 191 181 201 200 208 227 224 233 248 234 218 203 194 210 207 192 192 187 191 192 176 175 182 184 187 187 187 188 189 190 189 190 191 190 190 189 188 188 185 185 187 187 187 186 186 187 188 189 191 193 195 196 197 198 198 199 200 202 203 201 201 201 200 201 201 202 201 201 200 199
214 222 244 249 219 193 190 200 192 183 189 204 219 224 224 214 164 174 202 209 212 216 198 209 233 246 234 205 200 218 214 205 200 187 191 193 179 178 183 185 186 188 188 188 189 189 190 194 195 193 192 189 186 184 182 184 187 187 187 186 185 186 186 189 191 193 194 195 197 198 200 199 200 202 203 202 202 201 200 202 203 203 202 201 199 198
211 214 230 257 240 217 203 188 182 184 190 196 207 218 222 211 178 190 215 217 211 216 210 204 239 256 250 222 209 220 224 209 200 190 192 197 188 183 188 187 183 185 187 186 188 190 190 194 196 191 188 186 184 183 182 184 185 186 187 187 186 186 188 190 191 192 194 194 197 200 201 200 200 201 203 202 202 202 201 202 202 202 201 200 199 199
203 208 219 240 250 248 230 191 180 183 192 198 205 213 217 217 205 204 219 213 207 223 215 209 251 254 244 242 222 217 230 219 194 186 186 194 195 188 191 189 180 180 183 183 186 189 190 195 195 186 182 183 185 185 184 183 184 185 186 185 186 188 190 192 192 193 193 194 197 200 201 200 200 202 202 201 202 203 203 202 202 201 201 200 200 200
192 208 211 227 255 269 268 228 186 180 187 201 206 202 209 219 220 220 221 190 193 218 196 193 237 237 216 232 235 223 230 227 200 183 180 184 191 193 189 183 178 180 181 183 186 188 190 190 185 181 180 182 186 185 183 182 183 184 184 185 188 190 191 192 193 192 193 195 198 200 200 201 201 202 202 201 202 203 204 204 203 202 202 201 201 201
188 200 191 198 223 246 262 257 200 185 186 200 203 195 202 212 217 228 232 204 204 218 199 183 230 240 205 211 251 267 247 228 207 189 184 184 188 195 187 173 175 180 181 185 186 184 182 176 173 180 182 183 186 184 180 180 181 182 183 186 188 190 191 192 193 192 193 195 197 199 201 202 202 203 203 201 202 204 204 205 204 204 203 203 202 202
193 192 181 196 203 208 223 230 206 186 184 194 204 201 201 202 208 222 224 207 219 223 211 201 224 256 221 193 219 247 255 257 255 224 202 203 203 198 181 168 173 178 180 182 180 177 174 171 174 181 181 182 186 184 181 179 180 181 183 186 188 189 190 191 192 192 194 195 197 199 201 202 203 204 203 202 203 204 204 205 205 204 204 204 204 203
196 192 189 204 207 206 219 225 220 190 185 190 199 206 207 202 202 208 215 221 215 193 223 227 214 241 255 207 209 227 237 241 243 219 73 172 226 198 170 167 172 175 176 173 171 172 173 173 179 183 183 185 186 185 183 180 180 180 182 186 189 188 188 190 192 193 194 196 197 199 201 202 203 204 204 203 204 204 205 205 205 205 205 205 205 204
203 205 193 201 211 212 217 231 235 233 215 196 192 200 211 214 208 204 213 226 211 165 242 247 204 218 251 247 230 235 233 224 215 176 110 106 86 60 145 166 170 169 167 165 166 170 171 174 181 184 185 186 185 184 183 181 181 180 181 185 187 188 187 188 191 193 195 196 198 201 202 203 204 205 204 204 204 205 206 206 205 206 205 204 205 206
186 210 197 196 209 215 219 230 232 237 241 217 196 194 202 212 220 220 220 219 204 202 240 240 185 203 238 242 241 237 218 217 220 195 154 133 118 94 119 150 160 159 156 159 163 163 168 175 180 182 182 181 181 181 180 181 181 180 182 185 187 188 188 188 190 194 195 196 199 202 203 203 204 205 204 204 205 206 207 207 206 206 205 205 207 208
223 200 198 198 204 209 217 228 232 238 248 234 207 195 197 207 215 224 232 224 207 214 233 229 207 213 231 235 238 228 187 189 217 190 165 144 128 125 134 146 157 162 160 162 165 164 169 176 178 180 181 178 178 179 178 180 181 181 183 186 188 188 187 187 190 194 195 197 199 202 204 204 204 204 204 204 206 206 206 206 205 205 205 206 208 208
290 223 186 194 204 204 208 218 230 238 245 247 225 201 201 209 211 216 226 232 228 224 225 224 223 230 234 224 236 245 188 154 150 182 193 182 145 139 148 152 155 162 162 163 166 169 173 178 179 180 181 181 181 180 180 181 183 184 185 186 188 189 188 188 191 193 196 197 199 201 203 204 204 205 205 205 205 206 205 205 205 205 205 206 207 207
305 265 174 150 177 210 204 207 219 232 241 251 249 222 207 209 212 211 210 213 223 230 224 220 224 236 240 220 229 260 227 167 171 186 200 212 164 140 148 161 165 171 174 173 173 177 180 182 185 183 182 186 186 183 184 184 184 185 186 187 190 190 189 189 191 193 196 197 198 200 202 204 204 205 205 205 205 204 204 204 204 204 204 204 204 203
302 288 228 149 152 222 224 212 210 214 229 243 244 239 223 209 214 220 209 200 206 214 218 218 219 221 208 183 194 226 224 198 192 187 181 199 190 143 154 171 175 179 185 181 178 184 187 187 187 186 185 188 189 188 189 187 185 187 188 190 191 189 189 191 193 194 195 196 197 200 202 203 204 205 205 205 204 203 202 202 203 203 204 203 200 197
290 289 261 171 161 200 228 232 211 201 216 231 231 238 249 240 230 230 228 212 205 210 211 206 213 218 189 171 190 209 219 216 205 200 194 190 193 187 183 183 175 177 193 195 186 185 189 191 191 190 190 191 191 193 193 190 188 190 192 191 190 188 189 193 195 195 195 195 197 200 201 203 204 204 205 204 202 201 200 202 203 204 204 201 195 192
285 295 276 198 159 165 188 232 230 213 220 223 198 209 234 244 246 245 249 253 254 252 232 219 218 218 182 150 186 198 252 255 223 199 201 206 211 214 216 216 198 178 184 195 194 189 188 190 192 192 192 194 195 194 194 193 193 193 193 191 189 189 191 193 195 196 195 196 198 199 201 202 203 204 203 200 199 199 200 201 202 203 201 197 191 188
287 302 294 229 159 153 165 194 219 230 304 340 219 203 216 246 260 259 265 285 7 59 61 331 286 71 71 61 60 66 27 322 313 227 214 218 223 216 213 217 212 189 182 188 192 195 193 190 190 191 191 194 196 195 193 194 195 194 192 191 190 191 193 194 195 196 196 196 198 200 200 201 202 201 199 196 195 197 198 199 200 198 192 186 185 187
287 294 303 308 178 174 179 192 240 274 306 304 275 223 147 121 126 142 150 321 14 71 88 71 41 40 54 57 44 33 40 45 20 335 316 329 311 256 229 214 202 197 199 192 186 191 197 195 191 189 188 189 192 194 194 195 195 193 192 192 192 193 195 195 197 197 197 197 199 200 200 200 199 196 194 193 193 193 196 197 194 188 180 176 178 184
278 291 313 318 321 108 147 174 224 248 237 230 244 337 75 101 109 115 107 41 2 32 78 87 67 43 38 45 41 35 42 44 12 322 332 349 344 328 315 293 255 226 218 211 194 184 187 192 193 190 188 188 191 194 195 195 194 192 191 192 194 195 196 197 199 199 199 200 200 200 199 198 195 192 189 189 190 190 191 190 185 179 178 178 177 182
292 310 332 313 298 48 86 165 217 217 217 213 186 205 297 93 98 92 62 10 335 3 56 79 76 57 42 35 41 55 58 39 335 310 327 341 341 334 333 323 301 270 243 228 217 204 194 190 190 190 189 189 191 194 196 195 193 191 191 193 195 196 197 199 200 200 202 202 200 198 196 194 190 188 186 185 186 186 184 181 177 177 181 181 180 183
328 346 357 336 318 45 85 86 259 196 192 281 238 169 217 104 95 102 193 270 335 13 51 72 75 68 57 49 51 62 68 49 307 305 324 343 348 336 332 352 349 329 320 303 225 211 205 198 192 189 191 192 193 194 195 195 192 190 192 195 196 196 200 202 201 201 203 203 198 193 190 188 185 183 181 180 180 179 177 176 175 176 178 179 180 182
346 359 17 356 330 2 71 78 312 30 282 312 17 17 359 65 89 124 200 217 36 48 54 63 72 72 67 67 70 76 74 4 308 318 337 355 2 355 354 12 29 23 5 0 14 134 189 195 191 187 189 193 195 196 196 194 193 192 194 195 196 199 203 204 203 202 200 196 191 186 183 182 179 176 175 175 174 172 173 174 175 174 175 176 177 177
352 357 3 353 322 341 30 38 3 328 304 347 40 24 11 51 106 137 83 41 56 71 63 55 61 64 68 77 84 98 90 22 4 7 2 1 4 1 0 6 11 18 16 5 4 16 160 191 194 193 194 196 197 196 195 194 195 197 197 197 199 203 206 205 201 196 192 186 181 177 175 173 172 170 170 171 170 168 170 172 173 174 173 173 175 176
352 344 338 344 343 341 352 23 81 309 305 353 49 22 11 68 180 169 71 51 53 70 69 61 53 42 53 72 70 66 60 39 30 28 15 7 10 6 3 6 3 4 17 17 6 9 22 51 156 253 328 230 206 200 200 201 202 199 195 198 204 204 203 199 191 183 178 173 168 165 166 165 164 164 164 166 167 166 165 167 169 171 173 173 175 176
359 9 347 350 22 23 330 330 341 310 313 341 63 73 77 111 120 103 86 68 48 56 65 63 47 29 43 64 58 45 43 36 30 29 22 13 13 11 10 15 12 5 3 2 1 15 35 47 36 31 28 21 15 11 355 329 278 228 208 201 202 200 188 179 176 169 161 159 157 156 157 156 156 158 159 160 161 159 159 162 166 168 170 171 170 167
45 56 257 278 353 323 270 283 311 319 320 334 71 98 96 87 81 83 88 81 58 50 63 67 53 38 46 62 62 48 39 33 27 28 26 16 12 15 18 21 23 20 9 1 2 14 42 62 53 45 43 34 31 33 25 18 10 338 283 215 180 163 147 143 143 139 137 140 142 144 147 149 150 152 153 154 156 155 155 158 160 160 162 164 162 160
65 73 223 252 333 308 275 299 345 340 331 322 347 105 97 90 87 85 86 84 75 65 68 70 66 58 54 60 64 55 40 34 35 30 25 19 14 17 21 24 25 23 19 14 6 5 24 58 62 59 56 45 44 49 51 55 53 29 358 30 113 114 108 100 92 89 95 104 112 122 128 129 132 137 142 147 151 150 150 152 151 151 155 158 159 160
52 31 345 306 340 325 321 8 9 344 326 316 309 104 95 90 90 85 82 87 87 78 71 68 66 65 61 61 65 64 50 41 41 35 26 23 18 14 17 22 23 21 23 27 18 11 19 44 56 65 66 55 54 62 66 70 75 69 48 53 92 109 112 110 105 99 97 101 110 118 120 121 126 133 138 141 142 142 142 144 145 145 147 150 153 155
20 18 359 330 337 317 300 326 346 335 320 314 310 89 97 94 91 87 85 85 80 72 66 62 58 58 59 56 59 65 59 47 41 37 31 23 13 8 6 7 11 18 23 27 29 31 34 40 51 68 74 67 65 73 78 80 82 82 75 73 86 101 110 117 122 125 126 131 136 137 137 139 142 141 136 133 134 135 136 139 144 143 143 147 151 152
302 344 336 313 318 306 289 322 350 354 341 329 327 0 68 89 90 86 83 78 74 71 68 64 57 54 54 50 46 53 56 47 38 37 35 27 16 9 0 352 0 21 30 32 36 41 46 52 61 74 88 95 91 87 88 92 95 95 89 90 101 111 114 120 129 135 138 142 144 143 143 143 141 137 131 128 129 130 132 139 147 148 145 147 154 157
248 274 316 313 308 293 319 6 4 356 346 329 329 351 31 65 80 82 78 73 70 68 67 66 62 54 52 48 40 43 48 39 29 31 34 28 17 9 5 4 7 30 42 43 43 43 44 44 48 70 98 115 113 104 102 107 111 114 113 111 120 127 126 125 129 134 137 139 139 138 137 136 134 133 131 129 126 123 121 128 140 146 146 149 155 161
190 176 139 334 290 277 294 321 333 338 337 321 324 342 3 35 71 81 80 78 76 70 65 67 65 56 51 44 38 39 40 30 21 24 28 20 9 5 10 17 28 36 36 36 37 37 39 31 16 17 62 106 115 117 123 126 128 135 148 157 157 149 141 138 139 139 136 135 136 136 134 132 131 130 130 130 128 125 122 122 126 135 143 148 155 161